Location: Torrelameo
(41.7045°N, 0.7026°E)
Time: 10:23:13
(UTC+00:00)

Daily predictions for brighter satellites

Satellite Brightness Start Highest point End
(mag) Time Altitude Azimuth Time Altitude Azimuth Time Altitude Azimuth
Meteor 2-14 Rocket 4.4 18:36:27 10° N 18:42:32 76° E 18:48:35 10° SSE
STARLINK-1225 3.6 18:41:28 10° SW 18:45:28 65° SE 18:49:27 10° ENE
STARLINK-1203 3.5 18:43:28 10° SW 18:47:24 74° SE 18:51:20 10° NE
Cosmos 1110 Rocket 4.4 18:43:27 10° N 18:48:27 43° ENE 18:53:23 10° SE
SL-16 R/B 2.8 18:44:30 10° SSE 18:49:27 33° ESE 18:54:26 10° NE
Cosmos 332 Rocket 3.9 18:44:52 10° NNW 18:49:44 61° ENE 18:54:35 10° SSE
Cosmos 2333 Rocket 4.2 18:44:43 10° WSW 18:49:49 33° WNW 18:54:57 10° N
STARLINK-1230 3.5 18:46:05 10° SW 18:50:05 71° SE 18:54:06 10° NE
Cosmos 1892 Rocket 3.8 18:48:08 10° N 18:52:30 49° E 18:56:50 10° SSE
USA 186 3.2 18:50:30 10° SE 18:53:18 23° ENE 18:56:04 10° NNE
STARLINK-1234 4.0 18:50:40 10° WSW 18:53:32 40° NNW 18:56:23 10° NE
CSL-04 Rocket 3.8 18:48:20 10° S 18:53:39 78° WSW 18:58:57 10° NNW
ARGOS Delta rocket 4.4 18:49:26 10° SE 18:54:14 45° ENE 18:59:17 10° N
STARLINK-1243 3.5 18:50:45 10° SW 18:54:46 78° SE 18:58:49 10° NE
Meteor 2-21 Rocket 4.4 18:49:58 10° N 18:56:03 82° E 19:02:07 10° S
Meteor 2-16 Rocket 4.5 18:50:34 10° N 18:56:43 70° E 19:02:49 10° SSE
Cosmos 1626 3.4 18:53:56 10° NNE 18:56:54 22° ENE 18:59:51 10° SE
STARLINK-1236 3.5 18:55:24 10° SW 18:59:26 85° SE 19:03:29 10° NE
Okean 1-7 Rocket 3.8 18:56:08 10° N 19:00:25 50° E 19:04:40 10° SSE
Cosmos 1242 Rocket 4.1 18:57:27 10° NNW 19:00:42 37° W 19:03:55 10° SSW
SJ-11-01 4.3 18:59:27 10° SSE 19:04:04 62° ENE 19:08:44 10° N
H-2A R/B 2.4 19:00:01 10° SE 19:05:07 48° ENE 19:10:07 10° N
ATLAS CENTAUR Rocket 4.4 18:59:27 10° SW 19:05:14 40° SSE 19:27:08 14° ESE
STARLINK-1269 3.6 19:04:48 10° SW 19:08:50 82° NW 19:12:54 10° NE
STARLINK-1118 1.8 19:07:54 10° NW 19:10:07 85° NE 19:11:31 19° SE
Cosmos 1544 Rocket 3.8 19:06:47 10° SSE 19:10:58 47° E 19:15:13 10° NNE
STARLINK-1094 4.4 19:09:09 10° NW 19:12:55 38° NNE 19:15:46 16° E
HJ-1C 3.6 19:09:52 10° S 19:13:11 72° WSW 19:16:33 10° NNW
STARLINK-1200 3.7 19:09:30 10° WSW 19:13:33 75° NW 19:17:35 10° NE
Cosmos 1745 Rocket 4.0 19:08:19 10° N 19:14:40 88° E 19:20:54 10° S
Cosmos 2297 4.1 19:10:40 10° NNW 19:16:07 45° ENE 19:20:56 13° SE
USA 234 3.3 19:10:46 10° NE 19:17:15 64° SE 19:23:43 10° SW
CZ-2C R/B 4.5 19:13:12 10° NNE 19:17:27 32° E 19:21:38 10° SSE
STARLINK-1117 4.3 19:13:39 10° NW 19:17:27 40° NNE 19:20:07 17° E
STARLINK-1192 3.8 19:14:09 10° WSW 19:18:11 69° NW 19:22:14 10° NE
Cosmos 2237 Rocket 3.1 19:14:07 10° SW 19:19:34 53° WNW 19:25:06 10° NNE
Cosmos 1805 4.0 19:15:46 10° SSW 19:19:36 56° W 19:23:28 10° N
Meteor 2-5 Rocket 3.9 19:14:20 10° NNW 19:20:00 79° W 19:25:32 10° S
STARLINK-1078 4.2 19:18:07 10° NW 19:21:58 43° NNE 19:24:26 20° E
ADEOS Rocket 4.2 19:15:53 10° N 19:22:22 48° WNW 19:28:11 10° SW
STARLINK-1244 4.0 19:18:58 10° WSW 19:22:59 64° NW 19:27:01 10° NE
Cosmos 1302 Rocket 4.4 19:20:59 10° N 19:26:00 43° ENE 19:29:43 17° SE
STARLINK-1108 4.1 19:22:38 10° NW 19:26:31 46° NNE 19:28:47 22° E
Cosmos 1269 Rocket 4.0 19:21:36 10° SSW 19:26:53 82° ESE 19:32:12 10° NNE
STARLINK-1138 4.1 19:23:41 10° WSW 19:27:41 59° NW 19:31:42 10° NE
Cosmos 2278 Rocket 3.4 19:22:59 10° NW 19:28:18 43° WSW 19:33:36 10° S
CZ-2C R/B 3.5 19:25:10 10° NE 19:29:28 26° E 19:32:38 15° SE
STARLINK-1066 2.9 19:27:50 10° NW 19:30:59 65° NE 19:32:18 31° ESE
STARLINK-1071 4.0 19:27:07 10° NW 19:31:03 49° NNE 19:33:08 24° E
STARLINK-1081 2.9 19:28:18 10° NW 19:31:24 66° NE 19:32:41 31° ESE
STARLINK-1070 2.9 19:28:45 10° NW 19:31:51 66° NE 19:33:06 32° ESE
STARLINK-1124 4.0 19:28:01 10° NW 19:32:04 51° NNE 19:34:14 25° E
STARLINK-1069 2.9 19:29:09 10° NW 19:32:18 67° NE 19:33:34 32° ESE
STARLINK-1143 4.2 19:28:30 10° WSW 19:32:29 55° NNW 19:36:28 10° NE
STARLINK-1085 2.9 19:29:36 10° NW 19:32:45 68° NE 19:34:00 32° ESE
CZ-4 R/B 4.4 19:30:55 10° SW 19:33:04 14° W 19:35:13 10° WNW
ARGOS 3.1 19:27:48 10° SSE 19:33:10 73° ENE 19:38:34 10° N
STARLINK-1086 2.9 19:30:06 10° NW 19:33:13 68° NE 19:34:25 33° ESE
STARLINK-1095 2.8 19:30:33 10° NW 19:33:40 69° NE 19:34:50 34° ESE
Cosmos 2251 Rocket 4.4 19:29:34 10° SSE 19:33:55 26° E 19:38:18 10° NE
STARLINK-1077 2.8 19:30:59 10° NW 19:34:05 70° NE 19:35:16 34° ESE
STARLINK-1075 2.8 19:31:27 10° NW 19:34:34 71° NE 19:35:42 35° ESE
STARLINK-1093 2.8 19:31:52 10° NW 19:35:00 72° NE 19:36:10 35° ESE
Meteor 1-24 Rocket 3.7 19:29:48 10° NNW 19:35:20 79° W 19:40:40 10° S
STARLINK-1074 2.8 19:32:18 10° NW 19:35:27 72° NE 19:36:36 35° ESE
STARLINK-1110 3.9 19:31:38 10° NW 19:35:35 53° NNE 19:37:29 27° E
STARLINK-1087 2.8 19:32:47 10° NW 19:35:55 73° NE 19:37:00 36° ESE
STARLINK-1088 2.8 19:33:15 10° NW 19:36:22 74° NE 19:37:26 37° ESE
STARLINK-1115 2.8 19:33:39 10° NW 19:36:49 75° NE 19:37:55 37° ESE
STARLINK-1076 2.8 19:34:06 10° NW 19:37:15 75° NE 19:38:20 37° ESE
MOS 1 4.2 19:31:49 10° SSE 19:37:28 84° ENE 19:43:09 10° NNW
STARLINK-1092 2.8 19:34:34 10° NW 19:37:43 76° NE 19:38:47 38° ESE
STARLINK-1080 2.8 19:35:02 10° NW 19:38:10 77° NE 19:39:10 39° ESE
STARLINK-1090 2.8 19:35:29 10° NW 19:38:36 78° NE 19:39:36 39° ESE
STARLINK-1089 2.8 19:35:56 10° NW 19:39:04 79° NE 19:40:02 40° ESE
SL-24 R/B 4.3 19:34:59 10° NNE 19:39:20 44° E 19:43:10 10° S
STARLINK-1107 2.8 19:36:23 10° NW 19:39:30 79° NE 19:40:28 41° ESE
Cosmos 1470 2.7 19:36:03 10° S 19:39:50 59° E 19:43:40 10° NNE
Cosmos 2315 Rocket 3.9 19:37:38 10° S 19:43:54 78° E 19:50:16 10° N
SL-08 RB Rocket 3.6 19:40:53 16° SSE 19:44:22 66° ENE 19:48:54 10° N
STARLINK-1122 3.7 19:40:46 10° NW 19:44:46 61° NE 19:46:17 34° E
SJ-6B 2.8 19:42:00 14° SSE 19:45:29 84° ENE 19:49:37 10° N
MetOp-A 4.3 19:42:29 20° SE 19:46:00 52° ENE 19:51:12 10° N
Resurs 1-3 4.0 19:44:43 29° ESE 19:46:20 41° ENE 19:50:28 10° N
ISS -1.5 19:44:30 10° NNW 19:46:51 17° NNE 19:48:11 14° NE
Cosmos 1758 3.2 19:43:40 10° S 19:47:43 69° E 19:51:49 10° NNE
STARLINK-1126 3.6 19:45:23 10° NW 19:49:24 66° NE 19:50:44 39° ESE
BREEZE M DEB (TANK) 4.5 19:38:08 10° SW 19:51:30 48° SSE 19:53:49 29° E
CZ-2C R/B 3.2 19:46:46 10° S 19:51:53 72° WSW 19:56:47 10° NNW
Cosmos 304 Rocket 4.5 19:48:47 10° NNW 19:53:25 52° WSW 19:58:03 10° S
Resurs 01 Rocket 2.3 19:53:05 33° E 19:53:44 35° ENE 19:57:45 10° N
STARLINK-1082 3.5 19:49:56 10° NW 19:53:59 72° NE 19:55:08 44° ESE
FREGAT/IRIS 3.9 19:52:27 14° SSW 19:54:29 35° W 19:57:01 10° NNW
Abrixas rocket 2.4 19:51:53 10° SW 19:54:14 45° S 19:54:14 45° S
Cosmos 2369 Rocket 3.1 19:51:21 10° N 19:56:24 31° NE 19:57:50 28° E
STARLINK-1100 3.5 19:54:30 10° NW 19:58:33 78° NE 19:59:31 50° ESE
Meteor 2-15 Rocket 4.3 19:53:55 10° S 19:59:57 74° E 20:06:01 10° NNE
STARLINK-1083 3.4 19:59:06 10° NW 20:03:09 84° NE 20:03:57 56° ESE
IRIDIUM 114 4.3 19:58:04 10° N 20:03:15 60° E 20:05:35 32° SSE
SPOT 3 Rocket 3.5 20:00:43 22° SSE 20:04:10 84° ENE 20:09:25 10° NNW
Cosmos 1726 4.0 20:06:30 19° NE 20:06:30 19° NE 20:07:46 10° NNE
SL-14 R/B 4.4 20:03:22 10° NNW 20:07:14 44° W 20:11:02 10° SSW
STARLINK-1125 3.4 20:03:43 10° NW 20:07:47 90° SSW 20:08:23 63° SE
Meteor 1-21 Rocket 4.2 20:04:03 10° N 20:09:34 62° ENE 20:11:31 39° SE
STARLINK-1109 3.4 20:08:02 10° NW 20:12:05 84° SW 20:12:32 69° SE
Cosmos 1709 Rocket 4.4 20:06:08 10° NNW 20:12:14 60° W 20:18:13 10° S
IRIDIUM 103 4.2 20:07:12 10° N 20:12:26 74° E 20:14:45 34° SSE
MOS 1 Rocket 3.5 20:09:23 10° NNE 20:14:37 71° E 20:19:07 15° S
STARLINK-1091 3.4 20:12:42 10° NW 20:16:46 77° SW 20:17:02 72° S
Cosmos 1943 4.5 20:19:28 24° ENE 20:19:28 24° ENE 20:22:01 10° NE
Cosmos 292 Rocket 3.9 20:14:18 10° N 20:18:58 51° ENE 20:19:07 51° ENE
Cosmos 1943 Rocket 2.2 20:16:21 10° NNW 20:21:51 62° ENE 20:22:51 53° ESE
Cosmos 2074 Rocket 3.9 20:18:32 10° N 20:24:48 68° E 20:26:45 45° SE
Cosmos 1953 2.4 20:29:29 70° WSW 20:29:39 72° W 20:33:37 10° N
STARLINK-1072 3.9 20:25:46 10° WNW 20:29:27 57° WSW 20:29:27 57° WSW
Meteor 2-10 3.9 20:28:33 45° S 20:30:13 77° E 20:35:44 10° NNE
IRIDIUM 106 4.4 20:25:29 10° N 20:30:43 76° W 20:32:57 35° S
NOSS 3-3 (A) 3.7 20:25:19 10° SSW 20:30:59 65° ESE 20:37:20 10° NE
NOSS 3-3 (C) 3.7 20:25:26 10° SSW 20:31:05 64° ESE 20:37:26 10° NE
Spot 2 Rocket 3.9 20:33:06 47° NE 20:33:06 47° NE 20:37:37 10° N
TSX-5 4.3 20:28:20 10° NNW 20:33:22 60° WSW 20:33:49 56° SW
SL-16 R/B 3.7 20:28:15 10° SW 20:33:27 37° WNW 20:38:42 10° N
STARLINK-1096 4.2 20:30:15 10° WNW 20:33:44 50° WSW 20:33:44 50° WSW
Cosmos 2084 Rocket 4.0 20:31:28 10° NNW 20:35:19 51° NNE 20:35:19 51° NNE
STARLINK-1079 4.4 20:34:45 10° WNW 20:38:03 44° WSW 20:38:03 44° WSW
Cosmos 1610 Rocket 4.5 20:32:41 10° N 20:38:49 56° E 20:39:04 55° E
Aureole 3 4.5 20:38:26 26° SW 20:40:20 45° WNW 20:44:59 10° N
Aureole 2 Rocket 4.4 20:41:06 10° NNW 20:42:44 26° NNW 20:42:44 26° NNW
H-2A R/B 4.3 20:40:42 10° SW 20:44:43 22° W 20:48:42 10° NW
Terra 4.0 20:49:36 15° NNE 20:49:36 15° NNE 20:50:49 10° NNE
Cosmos 1603 3.6 20:53:25 51° SSW 20:54:54 84° WNW 21:00:34 10° NNE
Meteor 1-16 Rocket 4.1 20:54:16 66° SW 20:54:55 76° W 21:00:22 10° N
ATLAS 2AS CENTAUR R/B 3.6 20:49:41 10° NNW 20:56:40 37° NE 20:57:41 35° ENE
Cosmos 1825 Rocket 4.4 20:54:33 10° NNW 20:57:49 47° NNW 20:57:49 47° NNW
USA 234 4.2 20:53:57 10° NE 21:00:05 45° NNW 21:06:12 10° W
MetOp-B 4.1 21:01:14 79° NW 21:01:14 79° NW 21:06:21 10° NNW
Cosmos 2327 Rocket 4.4 20:56:40 10° N 21:02:58 89° W 21:03:23 80° S
CZ-2C R/B 3.9 21:05:05 10° N 21:09:51 38° WNW 21:14:10 12° SW
COSMOS 2455 4.5 21:07:03 10° N 21:11:09 22° NE 21:11:09 22° NE
Cosmos 1656 Rocket 4.4 21:18:29 10° NNW 21:22:37 48° N 21:22:37 48° N
ISS -0.3 21:20:56 10° NW 21:21:09 11° NW 21:21:09 11° NW
ERS-1 Rocket 4.3 21:28:47 33° N 21:28:47 33° N 21:31:33 10° N
Resurs 01 Rocket 3.8 21:30:38 21° W 21:30:38 21° W 21:33:40 10° NW
Cosmos 2154 Rocket 4.5 21:30:15 10° NNW 21:36:22 56° W 21:36:22 56° W
Cosmos 2369 Rocket 3.4 21:35:13 10° NW 21:39:39 37° W 21:39:39 37° W
Cosmos 1943 Rocket 4.4 22:01:25 10° WNW 22:04:25 18° W 22:04:25 18° W
NOSS 3-4 (A) 4.4 22:08:14 10° NW 22:13:24 53° NNW 22:13:24 53° NNW
NOSS 3-4 (C) 4.4 22:08:20 10° NW 22:13:29 53° NNW 22:13:29 53° NNW
ATLAS 2AS CENTAUR R/B 4.0 22:40:43 10° NW 22:45:07 36° WNW 22:45:07 36° WNW
